Theta_e
349 350 351 350 350 351 352 349 347 348 347 345 342 342 340 340 336 332 330 334 333 337 334 334 346 348 349 351 349 347 348 350 352 348 348 345 347 347 343 345 344 344 344 344 345 346 346 346 346 346 346 346 346 346 346 346 346 345 346 347 347 348 347 346 346 346 346 345 344 344 344 344 345 345
352 350 350 351 349 350 352 350 348 350 349 345 344 344 344 344 337 337 335 336 338 337 338 337 341 350 350 349 349 348 349 352 349 346 346 346 346 342 343 346 345 344 343 342 341 343 344 344 344 344 343 343 343 344 345 345 345 345 345 345 346 346 346 346 346 345 345 345 345 344 344 344 344 344
353 350 349 352 350 351 350 351 348 349 349 346 345 345 345 344 344 342 340 335 341 341 339 338 339 346 350 345 344 346 347 352 347 346 347 347 348 343 348 344 344 343 341 340 339 339 338 338 339 338 338 339 340 341 341 342 342 343 343 344 345 345 346 346 345 346 345 345 345 345 344 344 344 344
355 351 350 352 352 351 351 350 350 348 351 348 345 345 345 345 345 345 343 339 337 342 337 340 343 346 348 345 344 346 347 351 350 349 347 352 347 351 352 344 341 340 339 339 338 336 334 335 336 337 338 339 339 340 341 340 341 341 341 342 342 343 344 343 343 344 344 344 343 343 343 343 343 343
357 354 350 351 353 353 350 350 349 347 348 350 346 346 345 343 346 345 342 339 338 344 345 340 340 343 344 342 344 344 345 351 350 349 350 350 348 348 347 349 342 339 337 336 336 335 334 335 336 337 338 339 339 340 341 341 339 339 339 338 337 338 339 339 339 340 341 341 341 341 341 342 341 341
356 356 353 350 351 354 350 350 348 348 346 347 344 344 344 344 345 347 343 340 340 338 344 342 344 342 343 340 348 345 342 344 348 350 350 348 348 347 348 345 351 339 338 335 334 335 334 334 334 335 336 337 337 338 338 338 336 336 335 333 333 333 332 333 334 336 337 338 338 339 339 340 340 340
358 355 355 352 351 351 350 350 349 347 348 347 345 344 345 346 345 347 347 344 340 338 340 346 344 342 343 341 344 347 347 350 348 346 348 345 346 348 346 345 343 340 338 335 335 334 334 334 334 333 335 335 334 334 332 331 331 330 329 328 330 330 330 330 332 334 334 335 336 338 338 338 339 339
358 356 355 354 352 351 350 349 349 348 347 348 348 346 347 348 347 348 348 347 344 342 337 343 343 345 342 343 344 346 348 345 345 345 347 346 345 344 347 347 346 344 337 338 336 334 333 332 332 330 331 331 329 328 327 326 327 327 326 326 326 326 326 326 327 330 330 330 332 333 335 335 335 333
360 359 356 356 355 352 350 350 348 348 349 348 347 346 346 347 347 347 348 348 346 344 341 342 347 347 346 346 346 345 343 345 346 348 347 345 347 348 344 344 344 345 334 337 335 334 333 332 331 330 330 330 328 327 327 326 326 326 325 325 325 325 325 325 324 325 325 326 327 326 327 329 330 330
361 361 359 357 358 354 350 350 349 350 349 349 347 348 348 348 349 348 347 349 348 345 343 343 342 346 343 345 346 347 345 343 342 344 346 347 347 348 346 344 341 346 346 348 347 336 334 333 330 331 331 330 329 328 327 327 325 324 323 320 319 321 322 323 324 324 323 323 325 326 326 327 327 328
362 362 361 360 358 357 354 351 351 350 350 348 349 350 349 349 349 347 347 347 346 346 344 343 343 343 345 346 343 346 348 347 345 342 342 344 347 350 348 346 345 343 341 340 339 339 339 338 339 329 326 329 329 329 328 327 325 324 321 318 317 318 317 318 320 321 321 321 322 321 320 321 324 326
362 363 362 360 359 359 358 354 354 353 350 350 349 349 349 349 348 346 346 346 345 344 342 341 341 341 343 344 345 347 348 345 344 345 343 341 343 346 350 349 347 348 346 345 340 340 340 337 336 326 327 330 331 330 329 329 329 326 323 321 322 322 319 319 319 320 319 318 317 318 318 317 320 322
362 361 362 362 360 362 355 346 348 347 345 351 349 351 350 350 348 347 346 346 345 344 342 341 342 341 340 342 343 340 343 342 343 346 345 342 343 347 346 352 353 350 346 345 343 341 342 342 343 343 344 348 338 337 332 337 336 331 323 323 325 325 323 321 321 321 320 319 319 317 317 318 319 322
361 359 359 361 350 347 345 343 339 338 337 340 349 353 352 350 349 347 346 346 345 344 341 339 340 338 338 338 342 340 343 347 347 343 344 341 344 347 345 347 350 352 349 342 343 345 345 340 341 342 340 340 342 341 344 340 338 333 328 326 326 325 325 322 321 320 320 319 318 317 316 317 319 319
360 359 359 360 357 349 345 349 336 337 333 334 337 343 345 345 351 348 346 346 346 344 342 341 341 339 339 340 342 341 341 343 344 343 344 344 343 342 340 337 342 351 345 344 343 343 344 343 340 340 338 338 339 340 342 332 331 327 327 326 325 325 324 324 324 323 321 319 318 317 316 317 318 318
361 358 358 358 360 361 360 359 353 343 334 332 333 335 340 340 341 342 349 348 346 346 343 341 341 340 340 341 343 340 340 342 343 346 344 346 344 343 341 340 336 350 350 346 343 340 344 342 339 338 337 338 339 337 336 329 330 327 326 326 325 325 324 324 324 324 323 322 322 322 321 321 321 320
363 361 358 357 359 358 345 354 359 357 351 332 330 333 336 339 336 334 335 342 351 348 346 343 342 341 343 342 342 342 343 348 344 345 341 343 343 344 342 340 339 341 350 345 339 336 338 339 336 334 338 338 339 337 331 329 330 328 325 326 326 325 324 323 323 322 321 321 320 319 318 317 317 317
363 362 360 358 357 359 361 361 360 359 356 352 348 347 349 351 347 336 332 332 337 347 347 347 345 347 348 346 347 350 350 345 344 343 343 344 345 344 342 345 347 346 347 342 338 334 335 337 336 334 336 335 336 340 334 326 328 327 326 325 324 323 321 320 321 320 320 319 318 317 315 314 314 314
364 364 363 361 358 361 363 361 357 359 357 355 352 351 349 349 349 351 348 347 346 348 346 347 348 349 349 350 349 350 352 350 349 347 346 345 344 344 347 349 348 345 346 344 337 330 334 338 334 334 335 333 333 336 327 326 327 326 323 324 323 322 321 320 320 318 318 318 317 315 313 313 311 311
367 366 364 364 361 362 364 347 335 346 359 356 353 350 350 349 349 349 342 338 340 345 345 346 345 347 346 339 350 351 350 352 351 349 347 351 351 346 342 337 335 333 338 342 338 333 333 337 331 332 334 333 331 332 333 326 326 325 324 323 323 321 319 318 318 318 318 317 316 315 313 310 309 308
367 367 366 365 363 362 364 344 329 334 341 356 354 352 350 349 349 348 349 335 330 332 329 330 330 322 324 328 328 329 333 350 348 347 343 340 341 339 335 335 334 334 334 334 338 333 330 334 333 330 331 332 329 330 330 335 324 323 322 321 320 319 318 316 315 315 315 315 315 315 314 311 309 310
367 366 349 360 364 363 364 332 327 329 342 357 355 353 351 349 348 348 348 348 345 328 328 328 323 325 326 327 329 331 331 330 340 346 338 339 336 333 334 332 333 332 333 334 337 333 329 332 333 330 331 330 328 328 331 332 332 322 317 316 318 317 316 315 314 314 314 314 314 313 312 310 309 318
365 367 355 344 352 357 354 323 325 325 339 357 357 355 352 349 348 348 349 347 346 345 344 343 343 342 336 346 349 346 332 339 347 345 342 339 335 332 331 330 331 328 330 334 339 332 330 330 330 329 324 321 325 328 328 328 329 328 327 326 326 318 316 316 313 311 311 312 313 313 311 309 310 319
364 364 366 351 330 332 333 321 321 321 328 353 358 356 352 350 347 351 349 349 347 346 344 344 345 345 346 347 347 349 344 343 346 346 342 340 340 335 332 332 330 328 328 337 335 332 330 331 326 329 325 320 317 323 326 326 326 324 322 322 319 317 320 317 314 310 309 310 310 310 310 309 310 320
360 361 360 362 336 325 326 317 317 318 321 333 357 357 354 354 352 345 349 350 342 348 347 345 344 343 345 345 344 344 345 342 341 341 342 341 339 335 332 330 329 327 328 334 332 334 329 329 327 327 325 324 322 321 324 323 323 320 322 322 320 320 322 321 319 322 315 309 307 307 307 308 308 314
359 360 361 362 342 323 323 316 314 315 318 324 352 357 334 331 331 351 352 350 347 346 344 342 341 340 340 339 341 339 342 341 338 338 339 340 338 337 335 334 332 327 329 331 327 333 330 328 327 324 324 322 321 320 318 317 318 318 323 321 320 321 321 319 317 319 322 323 324 321 317 311 310 308
360 361 362 359 335 320 320 314 313 314 316 320 342 329 322 325 327 341 350 350 345 344 343 341 341 340 337 337 337 337 338 340 341 338 339 339 338 338 337 337 335 333 333 333 333 333 331 328 328 324 322 323 319 318 317 314 315 320 317 317 319 319 319 316 316 317 318 320 323 315 311 310 310 311
361 360 361 355 326 315 314 313 312 314 315 331 325 322 320 324 328 348 349 347 345 342 341 341 339 338 338 337 335 337 338 336 342 340 338 338 337 336 335 337 335 333 333 332 333 332 332 328 327 328 326 321 317 315 311 314 315 315 314 317 316 315 316 316 317 319 321 323 321 321 321 320 323 329
360 343 332 328 318 313 314 313 313 314 315 319 321 320 318 327 345 348 347 346 344 342 340 339 339 338 339 338 341 341 342 342 343 342 338 335 336 336 338 339 338 335 330 330 330 329 329 327 327 327 325 322 317 315 312 312 313 313 314 314 311 313 316 317 318 319 321 319 319 320 319 319 320 322
337 332 326 322 315 314 318 324 327 329 327 319 321 320 321 343 345 345 345 345 342 340 339 339 338 338 341 340 341 343 347 343 341 338 336 335 333 332 333 333 332 332 331 330 328 328 328 328 326 325 322 321 318 316 316 313 313 313 313 312 313 316 316 318 319 319 319 320 319 320 321 322 321 322
346 345 338 338 320 322 319 324 324 327 325 322 326 331 335 344 345 343 344 343 341 339 339 338 338 340 341 340 341 343 342 341 342 339 337 332 332 333 334 332 330 327 329 329 328 329 328 326 326 324 321 319 318 318 317 315 313 313 314 314 314 311 315 319 320 318 320 320 320 320 322 321 321 324
351 353 336 325 328 329 326 329 332 334 332 328 330 333 338 342 343 341 338 339 343 342 341 340 340 338 339 338 339 339 337 336 337 338 334 333 331 329 331 328 326 325 327 328 328 330 327 327 325 324 322 319 317 318 318 317 313 313 312 313 314 315 318 316 316 318 321 322 319 319 321 319 318 320
350 352 349 334 332 330 329 331 333 333 331 329 332 334 339 341 342 341 339 339 340 341 339 337 337 336 337 336 335 334 334 335 334 338 336 335 334 330 329 325 324 324 323 323 325 328 327 326 326 324 324 323 322 320 316 313 313 314 312 313 315 315 317 317 317 318 324 321 319 318 320 320 319 319
345 348 341 337 334 332 333 333 333 332 331 330 330 333 331 338 340 339 338 338 338 338 337 336 335 335 335 333 333 333 332 334 334 333 329 331 332 331 327 324 325 325 324 322 322 323 325 326 326 325 325 324 323 323 320 316 315 316 317 317 317 316 317 319 318 320 321 319 318 316 316 316 318 318
335 344 341 339 339 335 336 335 335 333 331 330 331 332 334 338 337 334 337 337 335 334 335 335 336 335 333 332 331 332 331 331 331 330 330 331 330 328 326 324 323 324 322 321 321 324 322 322 322 319 319 319 318 322 324 323 318 318 319 318 318 317 319 318 318 318 319 320 318 317 315 315 316 317
337 338 341 340 340 339 336 335 335 334 332 332 332 333 333 335 336 335 335 334 336 334 334 334 333 334 333 332 330 330 331 329 329 328 328 327 325 325 324 323 323 323 322 321 321 322 321 319 318 315 312 311 310 309 314 323 323 322 317 315 317 320 318 318 319 319 317 317 320 317 313 313 314 316
328 338 341 342 341 340 336 335 334 333 332 332 333 334 334 334 334 335 335 333 335 333 334 334 333 333 332 330 329 327 327 326 326 327 324 324 325 325 323 323 322 324 321 321 321 321 320 318 317 314 310 307 306 306 309 328 318 321 324 316 319 317 319 319 319 318 318 319 319 317 315 314 314 315
321 331 339 341 342 341 339 337 334 332 332 332 333 334 334 335 334 334 335 335 333 332 332 333 332 332 331 330 329 328 327 327 327 327 324 324 323 323 322 321 321 321 320 320 321 319 318 317 315 313 311 308 307 307 308 314 319 318 317 327 316 316 316 318 315 315 317 317 316 317 317 314 314 315
317 323 329 337 340 340 337 335 334 332 332 333 332 333 334 334 333 333 332 333 333 332 333 333 332 331 330 330 327 327 327 326 326 326 324 324 323 323 321 320 320 321 320 319 319 318 318 316 314 313 311 310 309 310 312 311 310 314 313 312 320 316 316 317 315 314 314 314 316 318 318 321 317 316
316 317 321 328 336 340 338 335 333 332 331 331 332 333 332 331 331 331 331 330 331 332 333 331 330 327 330 330 327 328 327 326 325 324 323 323 323 322 320 320 320 320 319 317 316 316 316 315 316 313 313 313 315 317 315 312 311 312 313 319 309 316 319 318 315 313 313 315 316 315 314 315 313 316
321 320 320 323 331 336 334 332 332 332 331 331 332 327 331 331 331 331 331 332 331 331 330 329 329 328 328 329 328 326 325 324 323 323 323 322 322 321 320 318 320 320 318 316 316 315 315 317 325 316 323 322 321 317 309 307 307 312 315 319 309 307 309 315 323 318 315 319 316 314 312 311 311 312
323 322 322 324 330 331 331 330 331 331 331 331 331 330 331 331 331 326 329 328 331 330 330 329 329 328 328 328 328 325 325 324 323 322 321 321 320 320 319 318 318 319 317 314 314 315 317 322 320 321 319 316 313 307 305 307 310 312 317 316 320 312 307 307 310 314 325 319 315 312 310 311 311 310
328 330 329 330 332 331 331 330 330 330 330 330 330 331 331 331 329 329 330 330 330 329 328 328 329 328 328 328 327 327 326 324 324 322 322 320 320 319 318 318 318 317 316 315 314 314 315 319 319 315 315 313 311 311 310 311 312 312 314 313 315 318 323 314 309 309 311 312 313 316 318 313 310 307
330 330 329 329 329 330 330 330 330 330 330 330 330 330 329 329 329 330 329 329 328 328 328 328 328 328 328 328 328 326 325 324 325 325 322 320 320 320 319 318 317 316 315 313 312 313 315 315 315 313 311 311 313 312 311 312 311 312 312 313 316 317 315 317 319 318 314 312 311 310 312 312 312 312
330 329 329 329 329 329 329 330 329 330 330 329 329 328 327 328 328 329 329 329 329 329 329 329 329 329 329 328 327 325 325 320 323 323 322 321 319 319 318 318 316 314 313 312 312 314 313 312 312 313 312 312 312 313 312 311 311 311 311 313 313 315 314 314 313 311 312 313 312 311 311 311 312 310
Wind_Speed
9 9 10 8 7 6 6 6 5 5 4 3 4 3 4 4 5 5 5 4 6 8 8 6 8 6 6 5 6 6 6 5 9 7 6 7 6 13 16 14 12 11 11 11 11 10 10 10 10 10 11 11 11 12 12 12 12 12 11 12 12 12 11 10 10 10 10 11 11 11 12 12 13 13
9 9 9 9 7 7 6 7 6 5 5 5 4 5 4 4 5 5 4 5 6 4 6 7 5 5 6 6 6 6 6 7 10 6 6 6 3 10 13 11 11 11 11 11 11 10 10 9 9 9 9 9 10 11 12 12 13 13 12 12 12 12 12 11 10 11 11 11 12 12 12 13 13 13
9 9 10 9 8 8 8 7 8 6 6 6 5 5 5 5 6 5 4 5 4 4 4 6 4 8 6 7 7 6 5 8 6 5 5 5 10 10 9 11 11 11 11 10 11 10 10 10 9 9 9 9 9 10 11 12 12 12 12 12 12 12 12 10 9 10 11 11 11 11 12 13 13 13
9 10 10 10 8 8 7 7 7 7 6 7 7 6 6 6 6 6 5 6 4 5 5 4 3 6 7 6 6 6 6 6 9 5 5 3 10 6 6 13 13 13 12 12 11 11 11 11 10 10 9 8 10 10 11 11 11 10 10 10 10 11 11 10 9 9 10 11 10 11 12 12 13 13
10 10 10 10 10 9 8 8 8 8 8 8 7 7 7 7 7 7 7 7 7 4 4 5 5 6 6 7 7 6 6 6 6 6 6 6 6 6 7 7 15 14 14 13 12 11 11 11 10 10 9 8 10 10 11 10 10 10 10 10 10 9 10 10 10 10 10 11 11 11 11 12 11 11
10 10 11 11 11 10 10 9 9 8 9 9 9 8 8 8 8 8 7 8 7 7 6 6 5 4 6 6 7 7 7 7 6 7 5 6 6 6 5 6 6 17 14 13 13 12 11 11 10 10 10 10 10 9 10 10 10 9 9 10 9 9 10 10 10 10 11 12 12 11 11 10 10 10
12 12 11 12 11 10 11 11 10 10 9 9 10 10 9 8 9 9 9 7 8 8 7 6 6 6 6 7 6 7 6 5 5 5 6 6 6 6 6 5 4 15 13 14 13 12 11 10 10 10 10 10 9 9 10 10 9 9 9 9 9 9 10 10 10 10 11 11 11 11 11 10 11 11
13 13 12 12 13 12 12 12 10 10 10 9 9 9 9 9 9 8 9 9 7 7 8 7 7 6 7 7 7 6 6 7 7 6 6 7 7 6 5 5 5 11 16 14 13 12 11 11 11 11 11 9 9 10 10 10 9 9 9 9 9 9 9 9 9 9 10 9 9 10 11 11 11 10
14 14 14 13 13 13 12 12 12 11 12 10 10 10 9 9 9 8 8 9 8 8 8 7 6 6 6 6 7 7 7 7 7 6 7 7 7 7 7 6 6 9 17 14 14 13 12 12 13 13 10 9 10 10 10 9 9 9 9 8 8 8 9 8 9 9 9 8 8 9 9 10 10 10
14 14 15 14 14 14 14 13 13 12 14 12 11 11 10 10 9 9 9 8 9 9 8 7 7 7 7 7 7 7 8 7 7 7 7 8 7 6 7 7 7 5 7 6 7 9 9 12 14 10 9 11 11 10 9 9 9 8 9 9 8 8 8 7 8 8 8 8 8 9 9 10 10 10
16 16 15 15 15 15 15 15 14 14 14 13 13 12 11 11 10 10 9 9 10 9 9 8 8 7 8 8 8 8 8 8 7 7 7 8 7 7 7 7 6 6 5 7 7 7 8 2 4 10 12 11 11 11 10 10 9 10 10 9 7 6 7 7 7 7 8 8 8 8 9 9 9 10
16 16 17 17 17 17 16 16 15 14 14 12 13 12 11 11 11 11 10 10 10 10 10 9 9 9 8 8 8 7 7 8 8 7 7 8 7 7 7 7 6 5 5 5 6 8 6 6 10 8 9 12 13 13 11 11 11 11 9 5 5 6 6 6 7 7 7 8 8 8 9 9 9 9
16 16 16 17 17 17 17 19 16 16 14 13 13 12 12 12 12 11 10 10 10 10 10 9 8 9 9 8 8 9 8 10 9 8 8 8 7 6 7 5 1 3 6 6 5 5 4 5 4 4 5 6 12 12 14 9 12 9 5 6 5 5 5 6 6 6 7 7 8 8 9 9 9 9
17 18 16 16 19 18 19 18 19 18 17 17 14 12 12 13 12 12 11 11 10 10 10 10 10 10 10 10 9 9 10 9 8 9 8 9 8 6 6 4 4 3 4 8 6 5 4 6 5 5 5 6 6 6 3 2 5 9 8 6 5 4 5 5 6 6 7 7 8 8 8 9 9 10
16 16 17 16 16 17 16 18 20 18 18 18 17 15 15 13 13 13 13 11 11 11 10 10 10 10 10 10 10 10 10 10 9 9 8 8 7 7 7 7 2 2 6 7 6 5 5 4 5 6 6 5 6 6 3 11 11 10 9 8 7 6 5 5 5 7 7 7 8 8 9 9 10 10
15 16 16 16 13 15 18 17 16 18 19 18 18 16 14 15 15 14 12 11 11 11 11 11 11 10 10 9 9 9 10 9 9 9 7 7 7 7 7 7 5 2 4 4 5 6 5 5 7 6 6 7 5 3 10 13 12 12 12 9 7 6 5 5 5 6 7 7 8 8 9 9 9 10
15 14 14 15 13 13 19 16 16 14 15 16 20 18 15 14 15 14 13 10 10 10 11 11 11 11 9 10 9 9 9 7 8 7 6 7 8 7 7 6 3 4 4 5 6 6 5 4 6 7 5 4 5 3 12 15 14 11 11 9 8 6 5 5 5 6 7 8 9 9 9 9 10 10
16 16 15 14 14 14 12 14 16 15 15 13 12 13 11 11 12 13 15 13 12 10 10 11 11 9 9 8 7 8 7 8 8 8 7 5 5 6 7 6 4 6 7 6 5 6 6 6 6 5 4 5 4 6 5 13 12 13 11 9 7 7 6 6 7 8 9 10 10 10 11 11 11 11
17 17 16 16 15 14 13 13 17 15 16 15 14 14 15 16 16 14 15 15 14 12 13 11 12 10 9 9 8 6 6 8 8 8 7 8 9 8 6 5 4 5 6 7 6 7 5 4 5 6 6 6 4 3 10 14 13 12 12 9 8 8 9 8 8 10 11 11 11 12 12 12 12 12
15 16 17 16 16 14 14 14 21 18 15 16 17 17 16 16 16 15 15 16 16 15 15 12 12 10 10 10 9 6 7 7 7 8 7 6 5 5 6 7 7 8 8 9 8 6 6 5 6 6 6 4 5 5 4 12 14 13 10 9 11 12 11 11 11 11 12 12 13 13 13 12 13 13
17 17 17 16 15 15 15 16 23 22 20 17 18 17 17 15 15 15 13 17 18 17 14 12 9 5 5 5 10 11 6 3 6 7 7 8 7 6 7 7 6 7 7 5 8 7 7 5 5 6 4 5 5 6 7 3 11 12 13 14 14 13 13 12 12 13 13 14 14 14 14 14 14 15
15 17 19 17 17 16 16 19 25 25 22 18 18 17 16 17 16 15 14 11 12 16 15 8 8 8 9 8 9 11 10 7 5 8 8 8 7 8 8 7 6 7 7 4 9 8 6 5 5 5 5 5 5 6 4 2 9 12 13 15 14 13 14 14 13 14 14 15 15 15 16 16 15 10
14 15 14 19 18 18 17 20 25 26 23 18 17 17 17 17 17 16 15 15 15 13 12 8 7 6 8 8 8 7 10 10 9 10 10 8 7 8 7 7 7 8 6 8 4 4 5 6 5 4 4 5 4 4 4 4 3 4 5 4 8 14 15 14 14 15 16 16 16 16 17 17 13 7
15 15 15 15 22 21 20 20 25 25 26 19 16 16 16 17 19 15 16 16 14 14 15 14 13 12 10 10 9 9 8 8 10 11 10 8 6 6 6 7 7 7 6 4 6 5 5 4 4 2 4 5 6 4 5 6 4 5 6 6 7 6 11 13 12 17 17 16 17 17 17 16 13 6
15 16 19 14 20 25 22 20 25 26 26 22 16 16 16 16 14 14 15 15 16 15 14 14 13 14 12 12 11 10 9 9 10 10 11 10 8 8 8 8 8 9 3 6 2 2 4 3 4 3 4 5 6 6 5 5 5 6 6 5 5 5 6 6 6 6 11 18 18 18 16 14 14 10
16 17 16 16 18 25 24 20 23 25 25 26 16 17 15 14 16 17 13 12 11 12 12 13 12 14 14 14 12 12 11 10 11 11 11 11 10 8 9 7 7 8 5 4 2 4 3 3 3 4 3 4 6 6 6 6 6 6 4 5 6 6 5 7 7 6 6 5 4 7 10 15 16 18
16 14 14 15 17 22 25 21 22 23 26 22 16 16 15 18 20 17 13 11 13 12 12 11 11 11 13 13 12 13 11 11 11 11 11 11 9 10 7 6 6 4 1 9 3 3 2 3 2 4 4 4 6 6 7 7 5 4 6 6 6 6 6 6 6 7 7 7 7 6 8 12 16 17
16 17 15 14 13 20 23 23 22 23 22 20 24 18 18 19 19 14 13 8 11 12 12 11 11 12 11 11 11 10 8 10 10 12 11 11 14 8 6 5 3 1 1 2 3 3 3 3 3 4 4 5 6 6 7 6 7 6 6 6 7 7 7 6 7 7 7 6 6 7 8 8 5 4
16 16 15 15 11 18 20 22 21 19 23 25 23 20 17 17 11 11 13 10 11 12 12 11 11 11 9 9 6 7 9 7 8 9 8 10 5 5 7 4 5 4 4 5 4 4 4 4 4 3 3 4 6 6 6 7 7 7 7 7 7 6 6 7 9 8 6 7 8 8 8 8 7 7
23 20 16 11 10 16 17 14 11 8 13 21 21 20 16 12 13 13 12 10 13 12 12 11 11 10 9 7 6 8 5 5 7 7 7 6 5 5 6 5 5 5 6 6 5 6 6 5 4 3 4 5 6 6 6 7 7 7 7 7 7 7 7 7 7 7 7 7 7 7 7 7 8 8
16 17 16 8 12 13 20 22 22 22 19 16 15 11 10 12 14 13 13 12 13 13 12 11 10 9 9 8 8 5 5 5 5 7 6 7 5 4 4 6 6 7 7 7 7 7 6 5 4 3 5 5 6 6 6 7 8 8 8 7 6 7 7 7 7 7 6 7 7 7 7 7 8 8
17 16 16 10 9 10 11 14 12 13 13 15 14 9 12 14 15 15 16 12 12 12 11 10 9 8 8 8 7 5 6 7 5 6 6 5 5 6 5 6 7 6 6 6 6 6 5 5 4 4 5 6 7 6 6 6 8 8 8 7 7 8 8 7 7 7 6 6 8 8 7 8 9 10
15 15 9 7 9 12 15 15 15 15 14 10 14 12 14 14 14 14 14 13 13 12 11 12 12 12 10 11 10 8 8 7 7 5 5 6 5 7 7 8 8 8 7 7 7 6 6 5 6 6 6 6 7 7 7 8 8 8 7 7 7 7 7 7 7 7 6 7 8 9 7 8 10 10
15 12 11 15 16 16 14 15 17 17 17 16 16 14 18 15 14 14 14 13 14 13 13 12 12 12 10 11 11 10 10 8 6 8 8 7 6 6 6 7 6 6 5 5 5 5 6 6 6 6 6 7 8 9 9 9 9 8 7 6 7 7 7 6 6 7 7 8 9 10 10 10 9 9
16 15 15 17 17 17 19 19 19 18 18 16 17 17 17 16 14 14 12 13 13 14 13 12 11 11 11 11 11 10 10 9 8 8 8 6 6 5 6 7 7 7 7 7 6 5 4 4 5 5 7 8 9 10 14 14 10 9 7 7 6 7 6 7 7 7 8 8 8 10 11 10 10 9
17 19 20 19 20 19 19 20 19 18 18 17 19 20 19 19 17 18 16 15 14 14 14 13 12 12 12 12 11 11 9 9 9 8 8 7 7 7 8 8 6 6 6 6 6 5 5 6 6 6 7 7 8 8 7 21 18 8 7 6 6 5 6 6 7 8 8 9 8 9 11 11 10 10
19 20 21 22 21 21 22 22 21 21 20 20 19 20 21 20 17 16 15 15 14 13 13 13 12 12 11 11 12 10 10 10 11 10 10 9 9 9 9 8 7 6 6 6 5 5 5 6 6 6 7 8 8 8 7 5 17 17 7 6 6 6 6 6 7 8 8 8 9 9 10 10 11 10
15 17 20 21 22 22 22 21 21 22 22 23 21 19 20 20 19 19 18 16 14 12 12 11 10 11 12 10 12 12 10 10 9 9 10 10 10 9 10 8 7 8 8 6 6 6 6 6 6 7 7 8 8 8 7 3 5 9 15 8 6 7 7 7 9 8 8 8 9 8 9 10 11 11
13 16 21 21 20 20 20 20 20 21 22 20 20 20 19 20 19 19 18 17 15 14 13 11 10 11 11 11 11 11 10 11 9 9 11 10 10 9 8 7 7 7 7 7 7 7 7 7 7 7 8 8 8 7 6 6 7 5 5 16 10 8 8 7 9 9 9 9 9 8 9 8 11 13
14 16 18 21 21 18 16 14 11 7 8 9 10 16 21 19 18 16 14 11 11 11 10 9 10 11 10 10 10 10 9 12 11 9 9 11 11 7 7 7 7 7 6 7 7 7 7 7 8 8 8 8 7 4 5 6 7 7 8 9 18 13 8 8 9 9 10 9 9 10 11 10 11 9
12 14 15 17 17 13 11 9 11 15 14 14 14 7 5 13 18 17 17 16 13 13 11 10 12 11 11 11 11 11 11 10 11 10 10 9 5 6 7 7 7 7 7 7 7 7 7 6 4 9 3 2 3 4 6 7 8 8 9 8 12 19 18 15 10 8 9 8 9 10 11 11 11 11
12 11 15 15 14 8 7 10 14 10 13 16 15 15 16 14 14 19 16 15 14 13 11 10 9 10 10 10 10 9 11 10 8 9 9 7 7 6 7 7 7 7 7 7 7 7 6 5 7 4 3 3 5 7 9 9 9 8 6 6 5 11 17 17 16 15 13 8 8 10 10 10 9 11
1 5 7 6 13 11 11 15 14 14 11 9 11 13 12 13 14 15 12 12 11 12 11 10 10 10 9 9 9 8 8 9 11 11 9 7 6 7 8 8 7 8 7 7 6 6 7 5 5 4 5 6 8 9 10 9 8 8 8 8 7 5 4 11 17 18 16 17 15 13 10 9 10 11
10 9 10 18 11 10 13 11 12 13 16 15 12 10 10 12 13 12 12 11 11 11 10 9 9 9 9 8 8 8 7 9 8 7 8 6 6 6 8 8 9 8 7 7 7 8 6 5 5 6 7 8 8 9 10 10 9 8 7 7 6 7 9 7 5 9 13 15 18 18 18 15 11 12
8 8 12 16 17 16 15 13 12 14 15 14 11 10 10 10 10 10 10 10 9 9 9 8 8 8 8 8 8 9 10 6 5 5 5 6 6 7 6 5 8 9 8 8 7 7 6 6 6 6 7 8 8 8 9 9 8 8 8 9 9 8 8 6 7 9 8 6 6 13 15 13 13 16
Wind_Direction
218 215 216 218 228 229 211 228 226 193 220 230 204 225 217 217 255 206 213 220 246 183 212 219 182 189 175 199 226 226 215 195 163 202 225 223 234 182 201 200 201 206 208 216 220 224 228 231 236 241 246 248 250 252 253 253 254 256 260 260 261 259 258 258 257 256 256 261 263 268 272 275 277 276
221 216 214 213 217 224 216 211 226 200 202 213 213 207 219 209 225 254 246 214 219 238 188 246 128 196 176 194 209 230 220 157 180 233 236 233 245 159 184 187 199 203 207 212 218 220 226 231 232 239 242 243 244 246 248 249 250 253 255 257 259 259 258 256 253 254 256 257 259 261 266 271 273 275
214 218 217 210 217 215 218 212 209 212 193 208 211 210 208 206 222 233 235 257 204 247 210 223 180 169 190 206 202 199 223 152 204 232 238 247 125 156 174 189 197 203 206 210 216 218 224 228 232 234 239 241 241 247 247 249 251 254 256 259 263 264 264 261 257 254 257 259 261 260 261 264 268 271
208 212 216 214 212 214 214 216 210 207 203 203 209 209 205 210 213 218 232 239 241 189 244 208 220 168 177 218 217 196 201 166 169 218 231 179 143 194 205 187 200 200 202 208 213 217 218 225 228 231 232 228 241 245 248 250 255 258 262 263 264 265 266 265 260 256 256 258 260 261 263 264 266 268
212 208 212 215 210 212 213 214 215 208 201 205 211 208 205 210 205 209 215 224 234 222 221 251 228 209 217 195 206 225 212 164 182 211 231 228 228 226 237 220 195 199 202 205 209 210 216 220 226 233 231 230 239 245 248 252 254 258 262 264 265 263 261 260 259 260 262 260 258 258 259 262 265 272
211 206 208 213 211 208 214 213 216 215 204 204 208 205 209 207 204 203 208 218 225 230 205 224 239 248 193 244 179 209 218 226 201 201 209 215 228 242 243 257 191 194 200 203 204 209 212 215 223 228 232 234 240 241 249 252 256 259 261 263 263 262 258 257 256 255 255 255 257 258 260 260 259 257
208 211 206 210 209 205 210 212 214 217 215 207 209 209 208 209 209 199 207 212 221 228 230 210 219 225 219 218 214 210 224 236 237 228 219 230 228 226 242 248 270 178 195 200 204 210 209 218 226 231 236 243 241 247 249 250 252 253 257 259 260 259 259 260 257 254 255 259 260 259 257 254 254 255
208 209 207 209 209 206 206 208 210 214 215 212 209 212 208 210 212 208 195 212 225 225 232 221 224 210 219 215 235 224 212 224 220 226 233 239 257 254 229 225 253 173 191 198 205 206 210 219 227 231 238 241 246 251 253 254 253 253 254 256 258 259 263 265 266 267 265 259 258 261 265 268 266 265
207 207 208 206 208 207 206 205 208 210 211 211 210 210 209 208 209 211 205 202 213 228 229 231 211 229 225 220 220 223 219 212 225 219 232 232 230 233 242 250 233 165 188 197 203 202 206 218 226 231 228 230 236 240 245 248 253 258 260 259 256 257 260 262 265 267 272 274 275 273 273 272 273 275
208 208 207 207 207 208 208 206 206 208 208 209 211 209 209 207 204 209 210 209 205 215 229 230 231 204 233 223 226 215 224 225 212 221 224 229 234 230 232 239 243 210 182 202 204 206 218 226 232 231 218 222 229 234 235 238 244 251 255 256 253 254 259 264 264 266 267 265 264 265 266 269 271 270
210 210 208 207 208 209 209 208 204 203 206 208 209 209 208 206 206 205 211 207 208 210 215 222 231 234 212 223 224 221 222 227 233 223 223 228 221 221 226 237 246 260 236 214 202 231 233 226 233 208 213 214 223 225 225 231 233 238 240 244 249 254 258 259 263 266 269 267 260 257 259 262 265 265
214 212 212 211 209 208 208 207 205 202 203 203 208 207 206 206 206 209 208 207 208 209 213 217 216 220 235 209 227 219 212 220 225 228 226 227 224 219 222 229 237 243 248 260 260 211 221 240 246 205 203 211 217 218 222 223 224 221 225 219 220 235 245 249 249 252 256 261 265 264 262 259 257 258
216 217 214 215 213 206 206 202 202 202 198 200 203 203 203 204 206 208 207 207 207 209 213 214 217 224 220 223 211 215 208 213 218 213 222 231 231 227 217 200 319 291 263 256 258 275 258 258 265 248 229 215 210 218 220 219 209 214 159 181 202 222 235 251 254 254 254 257 258 260 263 266 266 259
215 219 220 216 210 204 201 198 199 198 196 201 203 200 199 200 203 204 207 206 207 210 211 215 212 215 222 220 216 219 216 217 221 225 219 227 222 219 235 210 196 202 291 261 241 237 245 250 257 262 263 269 256 285 207 84 79 121 162 170 193 213 250 255 264 265 267 267 268 268 267 267 269 269
216 218 219 224 202 201 196 197 195 197 197 195 205 203 200 199 200 201 205 208 208 206 213 213 217 218 218 219 216 215 222 216 221 223 223 231 228 232 230 235 167 157 188 246 264 261 267 277 272 265 267 278 288 269 121 134 141 159 168 178 185 200 220 254 266 276 276 273 271 271 270 269 268 267
218 218 219 219 219 202 203 198 193 196 195 195 201 205 202 199 203 209 204 204 207 209 211 215 218 220 219 219 218 222 220 217 214 220 220 225 238 225 229 245 249 140 206 233 241 256 255 245 252 262 258 256 259 246 142 159 160 171 172 173 179 188 212 230 254 267 273 273 269 265 261 261 262 263
218 218 217 220 217 218 194 198 196 190 193 196 197 203 205 203 201 206 219 221 217 209 216 218 220 221 221 219 219 222 230 210 219 203 223 220 228 231 242 243 227 175 213 228 245 259 265 276 266 256 246 270 277 219 169 179 178 170 171 167 178 198 205 237 262 270 271 272 272 271 270 267 265 266
218 216 217 217 216 219 195 191 198 192 193 189 196 203 205 206 205 208 212 218 227 239 223 218 226 222 221 229 224 211 218 214 218 212 212 232 261 243 236 234 220 170 187 218 247 258 252 242 254 269 285 270 254 254 165 165 166 173 164 173 186 198 225 240 254 269 272 275 274 274 273 274 272 270
217 216 217 216 216 212 207 187 191 191 193 191 196 200 205 210 212 207 210 212 214 216 223 224 223 229 224 228 229 219 203 212 214 225 228 215 217 224 218 217 224 240 226 225 228 246 245 250 261 267 269 273 282 306 143 175 174 165 171 176 191 212 223 230 239 250 260 263 267 270 274 276 275 275
218 218 216 216 214 210 210 183 179 184 187 192 196 200 205 209 212 215 211 210 212 217 218 224 229 230 230 220 227 204 200 217 220 227 223 218 212 220 231 240 242 244 235 208 214 228 249 250 264 273 275 296 298 310 313 161 175 166 165 183 204 216 220 227 233 241 248 255 260 265 269 272 276 277
220 217 213 215 212 210 212 178 178 177 179 193 194 197 200 203 207 214 205 199 205 214 223 227 230 61 83 157 141 126 128 213 231 215 224 222 220 217 229 236 244 256 266 201 196 236 250 248 262 274 291 303 298 292 286 269 152 164 188 197 212 217 220 226 231 237 244 251 257 261 262 266 271 274
224 220 209 206 214 212 212 178 178 178 179 191 193 194 195 198 205 208 204 194 197 200 207 174 144 147 132 133 141 150 153 162 203 219 222 225 222 229 232 249 257 263 260 220 180 217 241 252 265 268 278 285 268 265 265 30 164 188 197 211 217 220 224 227 230 236 241 247 252 254 256 262 265 268
226 225 211 205 208 212 210 174 182 182 182 191 191 195 202 204 202 200 200 210 196 188 191 171 159 151 155 152 168 168 169 169 201 222 232 230 234 240 246 247 246 258 252 258 193 217 248 258 238 246 282 279 291 297 292 296 283 255 261 244 221 222 226 228 231 234 238 242 244 247 252 254 255 260
226 227 226 205 209 209 208 178 184 185 188 194 193 194 201 206 212 200 203 205 201 180 195 198 191 192 180 187 188 181 183 191 204 216 228 237 243 249 239 242 250 258 265 111 149 208 247 252 273 269 294 301 295 309 306 294 288 304 299 281 286 233 207 222 231 232 239 238 239 245 247 247 247 252
227 227 228 226 200 205 207 184 188 185 190 196 199 200 206 201 196 195 204 194 198 183 188 201 201 203 204 206 210 208 196 195 202 211 223 229 224 225 230 236 248 259 274 109 50 199 243 265 282 311 285 273 279 285 295 299 281 281 276 275 294 305 303 282 290 276 225 229 235 238 241 247 248 235
228 223 219 225 200 196 200 188 186 188 188 195 200 206 202 178 167 188 203 189 182 182 180 195 202 204 209 210 209 211 201 199 201 208 210 215 220 215 229 233 240 255 136 163 121 177 197 232 249 275 278 278 273 278 288 288 291 275 295 307 290 285 285 290 287 282 295 312 293 213 225 234 236 235
231 229 233 230 208 186 196 187 186 188 190 191 203 200 186 173 176 187 199 193 176 175 175 189 192 197 206 206 205 210 203 203 206 206 211 206 207 222 211 223 251 255 181 132 174 139 174 245 249 249 263 271 285 286 274 276 285 322 292 284 296 295 288 294 290 297 303 297 285 271 235 227 226 233
240 244 238 238 201 184 191 187 184 188 188 194 196 197 187 176 177 190 198 183 175 173 174 181 190 197 198 201 204 204 202 210 193 208 206 207 211 198 182 210 142 176 288 235 179 188 187 216 223 233 241 256 266 273 285 290 285 288 292 292 293 300 304 300 296 294 282 278 303 298 288 300 305 261
246 250 249 247 194 185 188 186 183 186 192 195 191 192 184 173 175 187 195 178 170 178 177 178 185 189 190 202 199 200 200 203 149 173 209 230 229 187 169 177 148 178 216 215 217 218 224 217 232 230 238 261 262 265 273 284 292 286 289 305 294 298 305 297 282 278 291 302 292 292 301 307 309 306
234 238 248 253 191 181 178 174 173 186 194 196 191 190 179 181 183 185 188 169 174 176 175 177 183 179 177 182 205 214 194 166 145 170 186 208 213 209 164 162 164 200 205 210 219 217 208 211 214 233 254 249 248 264 269 276 278 286 292 285 290 291 273 276 292 297 292 293 295 296 303 317 308 306
236 236 239 200 180 174 177 180 186 189 188 189 193 187 190 191 187 184 189 180 172 172 172 174 172 165 160 178 195 161 138 145 135 156 177 206 181 194 160 168 190 202 216 217 216 203 209 212 208 217 238 246 257 259 271 277 279 280 278 279 282 285 291 286 282 286 302 295 295 301 305 298 296 293
227 228 227 182 164 168 171 190 189 192 181 188 193 191 195 194 189 184 183 172 167 170 172 159 154 143 152 166 156 160 157 169 160 160 181 198 179 188 175 184 203 212 204 210 210 195 190 199 194 212 234 249 256 259 262 264 268 271 275 275 274 273 278 292 300 299 294 303 301 297 288 293 298 295
224 229 213 147 174 174 187 189 189 188 181 181 189 193 199 194 189 180 182 177 170 166 165 162 162 167 171 161 158 161 162 164 168 153 167 203 204 189 196 195 203 201 211 212 201 194 195 188 201 221 233 237 239 252 260 268 261 258 261 266 272 275 287 288 296 300 310 300 289 290 293 291 286 283
237 220 190 204 196 193 192 195 191 190 186 183 184 185 194 194 192 182 179 172 165 166 169 168 168 176 166 153 156 163 165 158 170 156 184 196 213 207 203 208 210 210 216 229 219 199 187 190 200 204 220 233 241 240 240 246 258 258 259 267 268 278 279 295 295 302 298 293 297 293 291 288 287 292
228 230 218 216 211 202 199 197 197 192 189 183 180 185 185 191 189 179 174 171 164 167 167 168 170 171 161 154 157 162 166 163 160 161 180 185 194 213 208 206 210 215 217 215 214 211 218 206 196 225 236 241 243 237 224 229 238 246 261 259 270 277 290 295 300 296 296 290 284 285 291 292 293 300
233 222 223 220 216 209 205 201 198 193 188 184 183 181 183 187 183 176 174 170 165 166 167 165 168 172 169 158 155 164 157 156 165 158 173 192 193 207 217 219 220 211 218 219 214 209 205 210 215 234 250 257 257 265 239 209 212 233 246 272 275 285 290 293 294 294 291 286 282 285 291 298 300 302
242 228 223 222 218 212 208 203 197 189 183 181 184 186 185 181 174 168 162 159 162 164 166 164 168 171 168 158 155 160 155 170 174 170 174 196 206 207 209 213 206 218 227 219 217 220 211 223 223 241 255 259 267 264 280 136 206 217 236 257 283 287 290 292 287 284 279 280 288 290 294 301 299 300
246 246 239 230 225 220 213 205 195 188 185 182 182 183 181 175 168 163 156 155 156 160 160 166 168 166 167 162 155 162 161 159 175 172 171 196 208 207 212 206 198 209 214 220 216 217 224 225 229 235 240 256 267 267 276 216 174 220 231 250 273 282 281 283 283 289 292 295 292 294 301 298 300 304
245 240 243 244 236 226 217 207 198 192 183 178 177 177 178 172 164 155 152 152 152 154 158 169 169 166 162 156 155 153 156 165 180 180 187 203 208 205 188 192 210 212 211 206 205 214 210 218 222 230 238 248 253 274 297 308 284 316 219 202 233 258 263 273 284 289 297 299 299 306 299 291 285 280
246 250 252 248 241 231 216 194 185 174 156 150 165 181 170 156 144 138 133 137 145 148 151 148 144 152 152 152 149 150 157 168 182 203 203 210 211 187 181 195 204 214 211 216 217 212 217 220 219 227 234 238 262 318 333 304 299 283 278 230 211 221 249 268 273 290 293 294 303 302 299 302 299 306
258 252 253 254 259 247 201 167 164 156 153 147 134 131 147 142 137 146 148 150 149 142 142 144 154 158 160 158 158 161 169 171 185 199 211 214 193 179 187 187 202 211 217 217 217 227 228 228 117 97 103 284 289 308 279 269 258 259 250 250 211 214 229 231 251 276 282 290 294 295 297 302 306 303
270 279 265 257 244 197 151 146 137 141 145 144 145 148 155 150 137 130 134 139 139 140 136 139 149 161 160 157 158 162 167 182 189 204 212 199 183 178 166 184 209 211 214 224 224 225 227 149 131 186 183 232 259 256 257 255 261 265 273 285 290 209 213 230 235 236 248 271 290 294 293 297 302 304
330 282 338 254 189 164 153 144 138 131 124 118 126 130 133 124 122 123 127 132 138 137 140 143 155 159 159 158 161 167 176 193 188 198 203 195 198 190 194 195 205 216 219 224 231 231 230 185 155 196 229 241 238 238 252 259 268 273 273 272 268 307 277 216 221 232 237 238 238 241 261 282 299 298
60 34 28 37 24 118 122 115 120 127 127 121 106 103 113 122 126 129 129 132 135 137 139 143 151 161 161 162 150 156 195 216 222 195 176 174 193 209 223 181 189 213 225 231 223 220 219 221 214 214 223 228 233 240 245 252 258 263 278 286 302 286 273 293 285 224 230 235 241 243 246 249 253 260
13 34 49 67 63 50 57 61 70 77 79 85 95 103 100 103 113 121 124 125 123 129 140 150 157 159 158 162 159 169 198 210 218 189 185 188 193 210 226 197 185 201 218 220 217 214 217 220 225 222 230 240 247 252 257 262 268 284 278 275 275 275 285 298 304 299 296 309 240 217 231 231 234 241